Wind_Speed
15 16 19 7 6 10 4 17 9 3 3 3 4 2 6 11 11 12 13 13 14 15 14 14 14 14 13 13 14 8 9 9 8 9 11 9 9 9 8 7 7 7 7 7
20 20 9 11 7 7 8 5 2 7 1 5 5 5 5 11 14 13 13 13 14 15 15 16 15 14 14 15 13 10 10 9 8 8 8 10 10 9 10 7 8 6 6 5
23 14 12 9 9 8 9 4 1 17 6 7 8 8 6 10 13 14 13 14 15 16 16 16 17 16 15 14 13 9 10 12 10 9 8 8 10 10 9 6 7 7 6 4
22 15 10 12 12 11 3 11 5 6 5 3 13 10 3 15 14 15 16 17 17 17 16 17 15 15 14 14 11 6 6 8 8 10 10 9 9 8 5 5 4 6 6 6
27 20 16 15 16 10 4 10 7 10 13 14 5 1 14 9 16 11 14 18 19 18 17 17 15 15 13 13 12 10 7 5 6 6 8 9 9 9 8 6 9 7 7 6
26 21 18 19 16 10 9 8 12 12 15 8 9 19 22 6 2 4 8 13 18 20 18 17 16 15 13 12 14 13 8 11 7 6 6 8 11 10 10 9 10 11 9 8
25 25 21 19 17 13 14 16 17 8 13 7 8 10 4 7 6 5 6 9 13 18 19 18 16 15 16 15 16 15 13 13 14 10 9 8 10 11 11 12 14 15 12 10
26 24 26 22 21 15 13 20 13 0 5 3 19 5 15 8 6 5 3 4 8 16 15 17 17 16 17 19 21 18 16 14 18 17 15 14 12 16 15 14 13 14 15 14
25 24 25 25 21 22 17 21 18 21 24 24 12 9 6 8 8 8 2 3 7 12 16 19 18 19 20 23 21 19 19 18 17 26 22 21 21 18 19 20 17 18 20 18
22 20 24 26 23 21 23 16 16 11 4 7 7 7 15 14 9 7 6 6 6 7 9 12 23 26 22 19 18 19 19 19 21 27 30 28 28 30 28 26 24 25 22 22
23 17 21 19 24 22 18 22 18 16 9 9 11 17 7 6 10 10 8 6 9 6 3 2 6 10 14 19 22 22 23 24 24 23 23 24 29 32 31 35 37 39 41 27
22 12 18 21 19 23 22 21 20 22 17 17 13 15 9 9 7 9 9 8 9 4 3 6 9 8 10 12 15 19 21 23 25 26 25 25 24 28 30 35 38 34 40 32
23 15 20 18 20 18 17 24 20 18 19 10 11 2 6 3 11 11 10 10 8 5 6 10 12 7 8 9 9 12 16 17 14 14 15 16 20 18 21 23 20 23 21 30
23 21 22 20 20 19 23 21 19 18 19 12 12 22 17 10 8 6 9 9 6 5 7 9 9 7 3 3 6 8 6 2 4 4 6 9 6 6 9 10 11 10 12 15
25 24 22 14 4 13 10 18 15 15 18 12 13 21 27 13 12 6 8 8 5 4 7 8 7 4 4 2 5 6 6 6 7 8 7 6 4 2 5 8 11 10 7 7
23 24 24 24 16 15 14 12 13 14 14 14 12 14 5 4 4 8 10 6 3 2 4 7 5 5 4 4 6 6 5 6 7 6 6 6 6 7 11 13 14 16 15 14
25 26 25 28 22 14 20 19 16 14 11 10 11 2 1 7 6 11 8 5 4 3 3 4 7 8 9 8 7 8 8 8 10 10 11 12 13 16 16 15 14 17 18 20
20 26 30 28 21 21 22 18 11 15 11 9 9 10 6 8 10 13 12 9 7 6 5 5 6 7 10 11 10 10 10 11 11 12 14 17 20 21 19 20 20 21 24 26
22 25 27 26 26 20 22 16 15 17 10 15 9 7 7 11 13 12 12 11 11 10 10 10 9 11 12 12 12 13 15 17 18 18 17 20 21 20 21 23 27 30 31 32
22 25 31 22 20 18 21 24 16 11 13 11 9 9 10 14 12 15 14 13 12 13 14 14 13 12 12 13 15 16 17 17 18 20 22 24 23 25 27 29 32 32 31 32
24 23 28 30 10 27 20 4 16 12 5 8 8 9 10 11 12 11 8 12 14 16 14 16 13 11 12 13 15 16 18 21 23 24 26 28 29 32 31 31 31 31 31 31
21 24 26 29 24 12 7 13 9 6 9 10 8 8 9 15 19 19 17 14 16 15 16 16 15 13 14 17 17 20 23 25 27 29 30 31 30 30 31 29 29 29 30 30
5 3 5 4 17 7 27 14 11 9 12 9 8 7 5 7 17 19 18 16 16 16 14 14 14 15 19 20 23 28 28 29 28 28 28 28 28 28 28 28 28 27 28 27
7 8 5 3 7 9 15 11 10 13 12 9 7 6 3 6 11 18 18 18 16 15 14 14 17 19 21 24 30 31 29 28 28 27 26 26 26 26 27 26 28 28 29 29
10 4 4 10 8 12 11 6 11 16 14 10 8 7 6 8 11 16 18 18 16 14 14 16 19 22 26 31 31 27 25 25 25 25 25 25 26 27 26 27 27 27 28 28
20 12 3 10 7 1 3 11 12 16 14 13 10 8 9 12 13 15 17 17 15 15 17 19 22 28 32 30 27 26 24 23 23 23 24 25 24 25 26 27 27 28 28 29
Wind_Direction
222 226 225 226 295 197 246 260 202 146 145 194 209 197 194 196 183 192 187 189 193 197 205 208 209 213 223 221 240 251 255 265 273 271 283 271 276 279 287 281 305 292 285 261
214 230 256 216 208 248 240 242 41 20 197 233 247 239 200 210 196 203 192 195 205 204 205 202 209 209 220 238 237 259 258 264 271 275 275 276 275 273 279 276 253 277 280 277
221 222 210 202 229 239 232 145 156 239 237 237 287 293 264 210 199 200 206 203 209 209 200 211 209 210 213 228 258 261 262 267 266 276 273 270 276 274 278 277 261 268 270 273
221 222 216 225 244 248 266 277 291 251 276 86 235 158 240 198 199 196 209 215 211 208 201 213 207 207 216 223 232 257 279 286 278 278 284 278 272 268 259 267 284 274 278 275
222 215 225 224 222 251 116 189 277 281 272 188 246 181 199 202 188 189 211 219 216 214 215 213 218 220 209 234 242 269 270 285 300 299 286 284 276 265 247 259 251 278 275 281
234 220 221 227 230 222 261 268 258 257 247 264 225 230 80 206 14 132 195 212 220 218 213 217 216 220 228 223 231 280 289 286 278 290 295 285 276 273 274 269 266 269 272 277
224 227 236 226 230 245 243 256 260 281 242 349 220 278 99 135 120 109 131 184 210 216 212 220 223 227 233 234 241 271 284 276 273 279 285 281 274 273 270 268 269 271 266 269
217 219 223 220 232 223 252 258 273 158 322 194 297 247 128 150 142 93 79 172 171 199 219 214 225 230 236 231 242 260 263 278 285 275 279 282 288 291 277 265 267 261 265 271
224 229 223 223 222 236 238 253 258 196 251 256 196 276 244 139 128 128 91 228 177 167 191 211 210 219 229 240 255 256 252 261 268 280 272 274 272 265 273 276 266 258 263 262
227 238 224 219 222 230 233 251 287 251 241 314 8 342 280 191 157 147 138 175 208 208 213 240 227 233 238 246 253 252 244 254 259 262 268 272 273 271 267 259 263 266 262 259
223 235 214 203 212 218 221 232 255 233 219 251 250 224 184 184 187 165 162 188 194 193 194 248 264 280 267 254 253 257 257 269 271 269 268 272 268 270 270 260 263 254 257 263
210 219 224 209 221 219 227 238 238 240 234 261 299 124 161 128 154 163 179 195 201 215 293 339 337 309 277 270 266 268 269 266 269 273 276 275 272 270 273 270 264 263 252 269
202 228 226 197 204 210 225 236 245 255 264 246 185 70 188 200 224 217 222 218 215 248 316 336 328 307 296 295 307 296 279 271 267 270 269 277 283 286 286 282 269 276 277 270
207 220 239 193 208 213 210 230 246 242 264 272 3 314 308 168 199 249 236 218 228 279 319 323 307 295 260 294 321 337 350 345 283 295 294 307 312 309 322 295 292 280 272 268
207 227 233 243 186 207 199 248 229 237 265 290 212 226 195 184 178 279 235 218 242 309 324 311 293 240 249 286 315 328 320 323 320 319 317 331 354 324 318 316 307 324 3 336
208 229 226 243 222 221 237 247 237 232 249 278 306 300 187 160 216 260 199 203 249 307 300 295 253 239 249 293 300 308 301 316 322 312 312 313 308 296 294 300 311 323 333 333
219 222 224 239 226 232 230 242 242 239 241 262 289 354 112 180 268 191 193 210 215 205 247 266 254 267 265 291 281 280 288 299 306 301 300 297 298 306 298 297 310 305 303 309
215 219 217 231 221 227 239 235 264 242 229 255 275 273 247 211 180 178 184 190 195 211 233 247 259 265 261 274 277 284 284 282 281 277 279 289 293 296 295 291 294 302 296 294
216 212 221 214 227 238 238 230 231 226 263 266 231 209 208 181 181 181 184 200 218 235 242 238 257 256 253 265 272 280 287 287 286 289 283 294 297 294 295 296 293 296 294 291
216 214 218 230 241 260 240 229 215 222 243 216 223 204 194 195 206 226 218 219 232 240 243 246 250 252 262 273 278 285 285 286 289 290 283 293 294 292 290 290 290 291 292 292
208 220 218 234 259 254 232 131 199 220 167 176 190 199 196 205 239 204 236 244 238 245 251 251 251 264 267 278 284 282 289 294 294 292 290 292 294 293 291 292 292 292 292 293
192 204 226 234 213 270 123 200 227 193 142 155 162 164 164 211 242 250 268 261 251 250 249 249 256 269 282 295 295 291 294 295 292 291 292 293 293 293 296 294 292 291 293 294
213 256 270 239 13 271 230 260 186 190 171 163 161 161 235 250 253 258 261 261 252 249 246 249 265 275 289 295 300 299 298 294 294 292 292 292 292 292 291 291 292 294 296 295
240 270 227 309 216 215 171 169 195 193 194 179 174 180 338 289 259 257 260 253 247 242 248 263 277 284 288 293 303 300 297 296 296 296 294 293 292 291 292 296 299 302 303 303
228 245 276 249 238 272 217 210 196 189 198 188 233 271 268 282 259 253 253 244 242 255 271 282 289 294 295 300 302 299 296 294 293 294 295 296 299 302 304 304 304 303 304 305
230 226 223 287 219 189 210 207 203 206 220 241 251 260 265 254 247 245 250 251 259 276 284 287 291 299 301 301 300 298 298 298 299 300 301 302 304 305 306 307 309 311 311 310
Height
3178 3176 3172 3174 3173 3178 3174 3172 3170 3172 3173 3176 3175 3175 3176 3177 3179 3180 3180 3182 3183 3183 3186 3186 3187 3189 3190 3190 3187 3187 3187 3187 3188 3187 3186 3188 3187 3187 3187 3186 3185 3186 3187 3186
3175 3172 3171 3175 3177 3176 3173 3170 3172 3174 3175 3176 3174 3173 3175 3175 3177 3179 3181 3183 3182 3183 3184 3185 3185 3187 3188 3187 3186 3185 3186 3186 3187 3186 3186 3186 3185 3185 3185 3185 3186 3185 3186 3185
3171 3171 3171 3173 3174 3174 3170 3170 3176 3181 3174 3174 3175 3173 3172 3175 3175 3178 3180 3180 3181 3182 3184 3184 3184 3185 3187 3188 3184 3184 3184 3184 3185 3185 3186 3185 3184 3184 3183 3181 3184 3185 3185 3184
3168 3170 3173 3174 3173 3172 3171 3171 3173 3175 3173 3179 3176 3183 3176 3171 3172 3173 3177 3177 3178 3180 3182 3183 3183 3184 3186 3185 3185 3183 3184 3184 3184 3184 3184 3183 3184 3183 3183 3184 3184 3184 3184 3184
3165 3167 3172 3171 3172 3170 3176 3174 3173 3170 3169 3168 3173 3173 3165 3167 3164 3168 3173 3175 3176 3179 3180 3182 3183 3184 3186 3186 3185 3182 3182 3183 3183 3183 3183 3183 3182 3182 3183 3183 3182 3183 3183 3183
3162 3165 3167 3169 3169 3172 3172 3173 3170 3168 3165 3161 3168 3164 3162 3173 3166 3168 3170 3172 3174 3176 3179 3181 3183 3184 3185 3185 3183 3180 3181 3182 3181 3182 3182 3182 3181 3182 3181 3181 3181 3181 3181 3180
3162 3163 3164 3167 3169 3169 3171 3169 3162 3165 3157 3162 3163 3160 3162 3165 3167 3168 3168 3171 3173 3174 3176 3180 3182 3183 3184 3184 3181 3180 3178 3180 3181 3180 3180 3180 3179 3179 3180 3180 3179 3179 3178 3178
3156 3158 3162 3163 3165 3166 3166 3164 3160 3165 3159 3173 3164 3156 3155 3161 3163 3165 3167 3168 3168 3173 3176 3178 3180 3181 3181 3180 3178 3178 3177 3178 3178 3179 3179 3179 3179 3179 3177 3177 3175 3175 3177 3176
3151 3153 3154 3158 3161 3164 3166 3163 3157 3164 3170 3162 3159 3161 3161 3162 3162 3164 3165 3166 3167 3171 3174 3174 3176 3177 3175 3173 3174 3176 3176 3176 3176 3175 3175 3174 3174 3174 3174 3173 3171 3170 3172 3172
3148 3148 3149 3152 3158 3160 3162 3165 3159 3153 3156 3156 3153 3159 3160 3159 3162 3163 3164 3165 3166 3167 3168 3168 3170 3169 3169 3170 3171 3171 3171 3172 3171 3170 3169 3169 3168 3167 3167 3167 3166 3166 3165 3166
3145 3146 3145 3150 3152 3156 3160 3160 3158 3160 3160 3161 3156 3154 3158 3156 3160 3162 3162 3163 3164 3166 3167 3167 3168 3168 3167 3167 3167 3165 3165 3166 3166 3166 3165 3165 3164 3162 3161 3159 3159 3158 3160 3161
3144 3143 3142 3146 3150 3153 3153 3154 3153 3149 3150 3149 3146 3152 3154 3155 3160 3161 3160 3161 3163 3164 3165 3164 3164 3164 3163 3162 3162 3161 3161 3161 3161 3160 3160 3159 3157 3156 3154 3154 3153 3151 3153 3155
3144 3143 3139 3141 3147 3149 3149 3151 3150 3148 3145 3144 3150 3149 3151 3151 3153 3156 3157 3159 3160 3162 3162 3162 3161 3162 3161 3160 3159 3158 3156 3156 3156 3155 3154 3153 3151 3149 3149 3147 3146 3147 3146 3147
3142 3140 3135 3134 3137 3141 3145 3146 3146 3145 3142 3140 3146 3148 3153 3152 3152 3152 3155 3157 3159 3160 3160 3160 3160 3160 3160 3159 3158 3157 3155 3154 3154 3153 3152 3150 3148 3147 3147 3146 3145 3145 3144 3141
3140 3139 3137 3134 3138 3141 3143 3142 3143 3143 3142 3143 3143 3149 3145 3149 3149 3150 3152 3155 3157 3157 3157 3157 3158 3158 3158 3158 3158 3157 3156 3155 3153 3152 3150 3148 3147 3146 3146 3145 3143 3142 3140 3140
3137 3137 3138 3135 3138 3140 3141 3140 3141 3141 3142 3142 3144 3145 3145 3148 3148 3149 3151 3153 3154 3155 3155 3156 3155 3156 3156 3156 3156 3156 3156 3155 3153 3152 3150 3149 3148 3147 3146 3144 3141 3138 3136 3137
3134 3135 3137 3134 3135 3137 3139 3138 3137 3138 3141 3142 3143 3144 3146 3146 3146 3148 3150 3152 3153 3154 3154 3154 3154 3155 3155 3154 3154 3153 3153 3152 3151 3150 3149 3147 3146 3144 3142 3140 3138 3136 3135 3134
3128 3130 3132 3130 3132 3132 3131 3132 3133 3134 3136 3139 3141 3143 3146 3146 3147 3149 3149 3150 3151 3152 3153 3153 3153 3152 3152 3152 3152 3151 3150 3149 3148 3148 3146 3145 3143 3140 3138 3136 3134 3133 3132 3130
3122 3125 3125 3126 3126 3128 3126 3127 3131 3134 3134 3135 3139 3141 3145 3147 3147 3148 3148 3148 3149 3150 3150 3151 3150 3150 3150 3149 3149 3148 3147 3146 3144 3143 3141 3140 3137 3135 3133 3131 3129 3127 3125 3122
3117 3120 3122 3120 3119 3121 3123 3121 3127 3130 3131 3132 3138 3139 3143 3145 3146 3145 3144 3145 3146 3147 3147 3147 3148 3147 3147 3147 3146 3145 3143 3142 3140 3138 3136 3134 3132 3130 3128 3125 3123 3119 3116 3112
3111 3113 3116 3116 3118 3119 3114 3123 3128 3131 3131 3131 3136 3138 3141 3143 3145 3143 3143 3143 3143 3143 3143 3144 3144 3144 3144 3143 3142 3140 3138 3137 3135 3132 3130 3127 3125 3121 3120 3117 3114 3111 3108 3105
3104 3112 3111 3112 3113 3117 3116 3124 3125 3124 3127 3131 3134 3136 3139 3140 3140 3141 3140 3141 3140 3141 3140 3140 3140 3140 3140 3139 3137 3136 3134 3131 3128 3125 3122 3119 3117 3114 3110 3109 3106 3104 3101 3098
3107 3106 3110 3111 3114 3114 3112 3119 3124 3126 3128 3130 3132 3133 3134 3135 3137 3137 3137 3136 3137 3137 3137 3137 3137 3137 3135 3133 3131 3129 3127 3123 3120 3117 3115 3112 3109 3107 3104 3102 3099 3097 3093 3091
3105 3106 3108 3111 3110 3116 3115 3116 3120 3124 3126 3128 3129 3130 3131 3132 3133 3133 3133 3133 3133 3134 3133 3134 3133 3132 3130 3128 3125 3121 3118 3115 3112 3109 3107 3105 3102 3100 3098 3095 3091 3088 3084 3081
3105 3106 3108 3111 3115 3114 3116 3114 3117 3118 3121 3123 3125 3126 3127 3128 3128 3129 3130 3130 3130 3130 3130 3130 3129 3127 3125 3122 3118 3114 3111 3109 3106 3103 3101 3098 3095 3092 3089 3086 3084 3081 3077 3073
3103 3105 3106 3106 3107 3106 3104 3110 3113 3115 3117 3120 3122 3123 3123 3124 3124 3125 3126 3126 3126 3126 3126 3126 3124 3121 3117 3113 3110 3107 3104 3102 3099 3097 3094 3091 3089 3085 3082 3079 3076 3072 3068 3065